Погода в Калининграде

Погода в Калининграде : погода сейчас, прогноз погоды и архив. Всё, что Вы хотите узнать о погоде в Калининграде!

Хотите узнать прогноз погоды в Калининграде? Тогда Вам сюда: Погода в Калининграде

Поиск расширенной информации на нашем сайте:

Другие новости

Новости СМИ2

Главная страница сайта

Новости сайта

03.07.2017

Напоминаем, что на нашем специализированном сайте Метеоцентр.Азия вы можете получить высокодетализированные автоматические прогнозы погоды по пунктам России, СНГ и мира в авиационном формате (включающие направление и скорость ветра, видимость, явления погоды, количество и форму облачности, нижнюю и верхнюю границу облачности).

Рекомендуем: Стоимость услуги по Выравниванию земельного участка.

Погода в Калининграде - сегодня

Время (UTC), дата Ветер
(°,м/с) 
Видим.   Явления Облачность Т
(°С)
Тd
(°С)
f(%) Тe
(°С)
Pmin
(гПа)
dP
(гПа)
Po
(мм)
O2
(г/м3)
Тmin Tmax R s Состояние
почвы
06 16.09.17 190 (Ю) 1-2{03}  4000 м  дымка  3/3 600 м 
[Sc]
+11.9 +9.1 83 +13  1013.4  758  291  +8.4        влажная 
03 17.09.17 тихо () -0{02}  4000 м  дымка{ливн. осадки}  10/10 600 м 
[Sc]
+12.2 +11.9 98 +16  1013.2  -1  758  290  +11.8    0.8     
06 17.09.17 070 (В) 1-2{02}  4000 м  дымка{ливн. осадки, морось}  10/10 600 м 
[Sc]
+12.2 +11.8 97 +16  1013.2  758  290  +11.8    0.8    влажная 
03 18.09.17 350 (С) 3-8{08}  4000 м  ливневой дождь  10/10 300 м кучево-дожд. 
[Cb cap]
+12.8 +12.4 97 +18  999.3  -4.1  748  285  +10.6       
06 18.09.17 350 (С) 3-8{09}  4000 м  ливневой дождь  10/10 300 м кучево-дожд. 
[Cb cap]
+12.8 +12.3 97 +17  997.7  -1.6  746  285  +10.6    20    мокрая 
18 18.09.17 290 (З) 1-3{08}  4000 м  слаб. ливневой дождь  10/10 300 м кучево-дожд. 
[Cb cap]
+11.1 +9.6 90 +13  1010.9  2.6  756  291    +12.8  29     
21 18.09.17 270 (З) 1-2{06}  4000 м  дымка{ливн. осадки}  9/9 600 м 
[Sc]
+11.1 +9.5 90 +12  1012  1.2  757  291           
00 19.09.17 210 (ЮЗ) 1-2{04}  4000 м  в посл. час ливневой дождь  9/9 300 м 
[Cu Sc]
+11.2 +10.7 97 +14  1012  757  291           
03 19.09.17 230 (ЮЗ) 1-4{04}  4000 м  дымка{ливн. осадки}  9/9 300 м 
[Cu Sc]
+11.6 +11.2 97 +16  1012.1  0.1  757  291  +10.7       
06 19.09.17 230 (ЮЗ) 1-4{06}  4000 м  в посл. час ливневой дождь  10/10 600 м 
[Sc]
+11.2 +10.6 96 +14  1013.1  758  291  +10.7      влажная 
09 19.09.17 250 (З) 2-6{08}  10 км    8/8 600 м 
[Cu med, cong]
+15.2 +11.8 80 +19  1014.4  1.2  759  287           
12 19.09.17 260 (З) 2-8{08}  10 км    4/4 600 м 
[Cu med, cong]
+17 +10.1 64 +19  1015.2  0.9  760  286           
15 19.09.17 230 (ЮЗ) 1-4{08}  10 км    3/3 600 м 
[Cu med, cong]
+16.1 +9.3 64 +17  1015.4  0.1  760  287      0.5     
18 19.09.17 тихо () -0{04}  4000 м  дымка  5/5 600 м 
[Cu med, cong]
+10.7 +9.8 94 +11  1016.3  0.9  760  293    +17.5       
21 19.09.17 тихо () -0{02}  4000 м  местами туман поземный  4/4 600 м 
[Cu med, cong]
+9.6 +9.2 97 +10  1016.8  0.4  761  294           
00 20.09.17 тихо () -0{01}  4000 м  местами туман поземный{ливн. осадки}  ясно 
+7.5 +7.3 99 +8  1016.8  761  297           
03 20.09.17 тихо () -0{01}  4000 м  местами туман поземный  1/0 верхняя 
[Cc]
+6.9 +6.8 99 +7  1016.8  761  298  +6.7    0.6     
06 20.09.17 тихо () -0{01}  4000 м  дымка  8/3 600 м верхняя 
[Sc|Ci fib]
+8.8 +8.8 100 +9  1017.4  0.5  761  296  +5.7    0.6    влажная 
09 20.09.17 120 (ЮВ) 1-2{02}  10 км    9/4 600 м верхняя 
[Sc|Ci fib]
+15.1 +10.9 76 +18  1017.8  0.5  761  289           
12 20.09.17 тихо () -0{03}  10 км    10/4 600 м верхняя 
[Cu med, cong|Cc]
+17.8 +9.5 58 +18  1017.6  -0.2  761  286           
15 20.09.17 360 (С) 1-1{03}  10 км    10/4 600 м верхняя 
[Cu Sc|Ci]
+15.5 +10.5 72 +19  1017.8  0.2  761  288           
18 20.09.17 тихо () -0{02}  4000 м  дымка  10/5 600 м средняя, верхняя 
[Sc|Ac trans|Ci fib]
+12 +10.8 92 +14  1018.9  1.1  762  292    +19.1       
21 20.09.17 тихо () -0{01}  4000 м  дымка  9/9 600 м 
[Sc]
+10.8 +10.4 97 +12  1019.2  0.2  762  294           
00 21.09.17 тихо () -0{01}  4000 м  дымка  8/8 600 м 
[Sc]
+10 +9.8 99 +11  1019.4  0.3  763  295           
03 21.09.17 330 (СЗ) 1-1{02}  4000 м  местами туман поземный  1/1 600 м 
[Sc]
+7.9 +7.7 99 +9  1019.2  -0.3  762  297  +7.8         
Время (UTC), дата Ветер
(°,м/с) 
Видим.   Явления Облачность Т
(°С)
Тd
(°С)
f(%) Тe
(°С)
Pmin
(гПа)
dP
(гПа)
Po
(мм)
O2
(г/м3)
Тmin Tmax R s Состояние
почвы

Для получения пояснительной информации подведите курсор к названию столбца.

ПОГОДА в Калининграде - архив

Всё, что Вы хотите узнать о погоде в Калининграде - удобно и подробно!

Выберите нужную дату (начиная с 1 января 2015* года) и нажмите кнопку "Найти".
Будут отображены архивные сводки погоды по пункту Калининград, начиная с указанной даты.


Отображать данные в формате CSV (для использования в таблицах Excel)


Внимание! Наш архив погоды предназначен исключительно для личного некоммерческого использования в познавательных целях. Если Вам необходимы официальные справки о состоянии погоды (для производственных, юридических, коммерческих и т.п. целей), обращайтесь в органы Росгидромета.

*Примечание: данная дата относится к архиву по метеостанциям СССР (Россия, СНГ, Балтия).
Архив по метеостанциям Зарубежной Европы и Азии (кроме Китая) хранится 10 дней, по другим регионам земного шара (Китай, Африка, Америка, Австралия, Океания) - 1 день.

Калининград - район местоположения метеостанции


Название, широта, долгота, высота метеостанции:
Калининград (город) 54.7°ш. 20.6°д. 21 м над ур. моря [Российская Федерация]

Дополнительная информация

В oтличие oт бoльшинства пoгoдных сайтoв мы публикуем пoдрoбную метеoинфoрмацию в детальнoм прoфессиoнальнoм фoрмате.

Характеристики температуры и влажнoсти вoздуха измеряются на высoте 2 м в тени вдали oт зданий и деревьев.
Скoрoсть ветра измеряется на высoте 10 м (на урoвне рoста челoвека скoрoсть ветра ниже в 1.5-2 раза). Если метеoстанция нахoдится в гoрoде или в лесу, тo скoрoсть ветра занижена на 2-4 м/с пo сравнению с oткрытым местoм. Скoрoсть ветра над акватoриями крупных рек и oзёр, а также на вершинах хoлмoв на 2-5 м/с выше, чем в oбычных услoвиях.
Атмoсфернoе давление в разных тoчках местнoсти мoжет значительнo oтличаться oт давления на метеoстанции, в зависимoсти oт услoвий рельефа (при пoдъёме на 10 м давление пoнижается примернo на 1 мм рт.ст.).